{"data":{"norad_id":67730,"epoch":"2026-09-18T02:46:03.315360Z","epoch_age_seconds":272463,"freshness":"STALE","line1":"1 67730U 26026K   26261.11531615  .00013179  00000+0  40995-3 0  9999","line2":"2 67730  97.2843 312.9581 0001497 107.5285 252.6121 15.33434688 33613","mean_motion":15.33434688,"eccentricity":0.0001497,"inclination_deg":97.2843,"raan_deg":312.9581,"arg_perigee_deg":107.5285,"mean_anomaly_deg":252.6121,"bstar":0.00040995,"rev_number":3361,"period_min":93.906836154733,"perigee_km":464.54935239183,"apogee_km":466.59835942209,"semimajor_km":6843.710855907,"source":"CELESTRAK","updated_at":"2026-09-20T09:00:43.658294Z"}}